Miscellaneous Local Product
Issued by NWS North Platte, NE

Home | Current Version | Previous Version | Graphics & Text | Print | Product List | Glossary On
Versions: 1 2 3 4 5 6 7 8 9 10 11 12 13 14 15 16 17 18 19 20 21 22 23 24 25 26 27 28 29 30 31 32 33 34 35 36 37 38 39 40 41 42 43 44 45 46 47 48 49 50
000
AXUS43 KLBF 290810
MISLBF


WESTERN AND NORTH CENTRAL NEBRASKA HOURLY WEATHER ROUNDUP
NATIONAL WEATHER SERVICE NORTH PLATTE NE
300 AM CDT SAT AUG 29 2015

NOTE: "FAIR" INDICATES FEW OR NO CLOUDS BELOW 12,000 FEET WITH NO
SIGNIFICANT WEATHER AND/OR OBSTRUCTIONS TO VISIBILITY.

NOTE: STATIONS NOT REPORTING VARIABLES SUCH AS SKY/WEATHER OR
PRESSURE ARE PROVIDED BY THE NEBRASKA DEPARTMENT OF
ROADS...RAWS...AND APRS NETWORKS...AND ARE NOT UNDER
NATIONAL WEATHER SERVICE QUALITY CONTROL.

...OBSERVATIONS IN AND NEAR THE EASTERN PANHANDLE OF NEBRASKA...

CITY           SKY/WX    TMP DP  RH WIND       PRES   REMARKS
PINE RIDGE     CLEAR     54  50  86 CALM      30.10F
CHADRON        CLEAR     56  50  80 CALM      30.10F HAZE
ALLIANCE       CLEAR     51  47  86 W3        30.15F
SIDNEY         CLEAR     54  45  71 SW10      30.20S
CRESCENT LAKE    N/A     62  55  79 CALM        N/A
BIG SPRINGS      N/A     56  53  91 CALM        N/A
$$

...OBSERVATIONS IN NORTH CENTRAL NEBRASKA...

CITY           SKY/WX    TMP DP  RH WIND       PRES   REMARKS
VALENTINE      CLEAR     57  57 100 SW5       30.07S FOG
THEDFORD         N/A     55  55  97 CALM      30.11S FOG
AINSWORTH      CLEAR     58  57  98 CALM      30.08S
O`NEILL        FOG       58  58  99 SW3       30.05S VSB 1/4
ORD            MOCLDY    56  55  97 CALM      30.04F
BROKEN BOW     CLEAR     57  55  93 CALM      30.07F
SPRINGVIEW       N/A     57  56  96 CALM        N/A
SARGENT          N/A     58  57  97 CALM        N/A
CHAMBERS         N/A     58  57  96 CALM        N/A
EWING            N/A     58  55  90 CALM        N/A
$$

...OBSERVATIONS IN SOUTHWEST NEBRASKA AND FAR NORTHEAST COLORADO...

CITY           SKY/WX    TMP DP  RH WIND       PRES   REMARKS
WRAY           FAIR      60  53  78 SW5       30.18F
HOLYOKE        FAIR      59  54  82 SW3       30.18S
IMPERIAL       CLEAR     59  56  89 SW5       30.15F
OGALLALA       CLEAR     55  54  95 CALM      30.15S
NORTH PLATTE   PTCLDY    52  50  93 N3        30.12F
MCCOOK         CLEAR     58  56  93 W7        30.11F
LEXINGTON      CLEAR     58  56  95 W6        30.09F
PAXTON           N/A     58  55  90 CALM        N/A
BRADY            N/A     55  52  91 CALM        N/A
CALLAWAY         N/A     52  51  95 CALM        N/A
$$

...OBSERVATIONS IN CENTRAL LINCOLN COUNTY AREA...

CITY           SKY/WX    TMP DP  RH WIND       PRES   REMARKS
N.P. AIRPORT   PTCLDY    52  50  93 N3        30.12F
N.P. DOWNTOWN    N/A     59  58  95 CALM        N/A
$$

...SOME OBSERVATIONS FROM AROUND THE REGION...

CITY           SKY/WX    TMP DP  RH WIND       PRES   REMARKS
DENVER         PTCLDY    65  38  36 SW12      30.28F
LARAMIE        CLEAR     51  39  63 S9        30.38S
CHEYENNE       CLEAR     54  45  71 W7        30.32F
SCOTTSBLUFF    CLEAR     55  50  83 NW7       30.18R
RAPID CITY     CLEAR     61  55  81 W5        30.06F
PIERRE         PTCLDY    63  62  97 SE6       29.96F
WINNER         FAIR      66  61  84 S7        30.02F
SIOUX FALLS    PTCLDY    54  53  97 CALM      30.02F FOG
OMAHA          CLOUDY    63  62  97 N9        29.97S
GRAND ISLAND   CLEAR     57  56  96 N5        30.05S
KANSAS CITY    CLOUDY    71  68  90 SW9       29.93S
WICHITA        PTCLDY    72  66  81 N9        29.98S
HAYS           CLEAR     63  54  72 NW5       30.06S
LIBERAL        PTCLDY    72  59  64 E9        30.12R
GOODLAND       CLEAR     58  54  86 W5        30.17F
$$



USA.gov is the U.S. government's official web portal to all federal, state and local government web resources and services.